Terminal Aerodrome Forecast
Issued by NWS Mt. Holly, NJ

Home | Current Version | Previous Version | Text Only | Print | Product List | Glossary On
Versions: 1 2 3 4 5 6 7 8 9 10 11 12 13 14 15 16 17 18 19
000
FTUS41 KPHI 191120
TAFACY
TAF
KACY 191120Z 1912/2012 26018G38KT P6SM VCSH SCT030 OVC070
     FM191300 27017G41KT P6SM SCT040 BKN070
     FM191900 29016G33KT P6SM SKC
     FM192200 29013G24KT P6SM SKC
     FM200300 28012KT P6SM SKC=

USA.gov is the U.S. government's official web portal to all federal, state and local government web resources and services.